Terug naar catalogus

STARLINK-3143

ActiefCommunicatieVLEO
NORAD 49738·PAYLOAD·🇺🇸 United States

Gelanceerd Dec 2, 2021 vanaf Cape Canaveral Space Force Station

Loading…

Volgende Passages (komende 24 uur)

TLE

VersSource: CelesTrak SupGP

Epoch: Sep 15, 2026, 01:47 UTC

1 49738C 21115Q   26258.07479167 -.00001438  00000+0 -78810-4 0  2588
2 49738  53.2169  16.4329 0001491  78.7624 219.9555 15.13703843    15

Volg STARLINK-3143 in realtime met AllMySat

Download on the App Store